DECAYED

QAEM 100 DEB, 61181 (Decayed)

Orbit data source: Space-Track

QAEM 100 DEB, 61181 was space debris in LEO originally from a launch on Sat, 14 Sep 2024 UTC launched from the Sharud Missile Test Site (SMTS). Debris objects in space refer to the collection of defunct objects orbiting the Earth. Examples of debris include non-operational satellites, rocket bodies, and fragments generated from explosions, collisions, or faulty payload assembly.

Not visible in the next 10 days
QAEM 100 DEB details
Identifier
61181, 2024-165C
Orbit
Decayed
Last TLE update2 weeks ago
Origin
Flag of IRIRGC (IR / IRAN)
ManufacturerIRGC
MissionDecayed spacecraft
Bus & MotorUnknown
MassUnknown
Launch date (UTC)
2024-09-14 (3 months ago)
Launch vehicleUnknown
Launch site
Sharud Missile Test Site (SMTS)
Object type
Payload
Rocket body
Debris
Shape & HBRUnknown
Radar Cross SectionSmall (<0.1 m²)

Expand to show TLE details & history

TLE from 2 weeks ago
0 QAEM 100 DEB
1 61181U 24165C   24341.31806047  .07126369  11315+0  15088-1 0  9995
2 61181  64.0774  59.0800 0018345 357.9111   2.1970 16.03767282 12416
Epoch: 2024-12-06T07:38Z
Definitive object data (Epoch: 2024-12-06T07:38:00.424Z)
Latitude-0°
Longitude-131.008°
Altitude253.864 km
Speed7.762 km/s
True Right ascension03h 56m 19s
True Declination0° 00' 00"
Sunlit
Object was in full shadow at TLE epoch
Visualization observer readout
Observer readout values are unavailable because the object's trajectory could not be propagated. This is usually caused when the trajectory data is faulty or the object's orbit has decayed.
Visualization observer readout
Observer readout values are unavailable because the object's trajectory could not be propagated. This is usually caused when the trajectory data is faulty or the object's orbit has decayed.
Orbital elements
Apogee altitude274.769 km
Perigee altitude250.404 km
Semi-major axis6,640.723 km
Eccentricity0.0018345
Inclination64.0774°
RAAN59.08°
Arg. of periapsis357.9111°
True anomaly2.20508°
Mean anomaly2.197°
Eccentric anomaly2.20104°
Mean motion4.0107 °/min
BSTAR0.015088
Orbital period89.76 mins
Loading maneuver chart data...
Loading historical data...
Loading historical data...
Loading historical data...
Loading historical data...
Loading historical data...
Loading historical data...
Loading historical data...
Other satellites on launch #165 in the year 2024 (2024-09-14 UTC)

QAEM 100 DEB Visibility forecast

Observer location: undefined°, undefined

This satellite is decayed
Span
Click to sort rows by Start time (UTC) header in descending order
Start Az.
Max El. time (UTC)
Max El. Az.
Max El.
End time (UTC)
End Az.
|